Powrót do katalogu

SJ-25

AktywnyNaukaGEO
NORAD 62485·PAYLOAD·🇨🇳 China

Wystrzelony Jan 6, 2025 z Xichang Satellite Launch Center

Loading…

TLE

ŚwieżeSource: Space-Track

Epoka: Sep 14, 2026, 13:45 UTC

1 62485U 25002A   26257.57323198 -.00000355  00000-0  00000+0 0  9997
2 62485   5.3216  60.5557 0046719 179.5948  87.1500  1.00280793  6256

Śledź SJ-25 w czasie rzeczywistym z AllMySat

Download on the App Store